Location: L�Adrech
(44.2500°N, 6.4167°E)
Time: 00:50:00
(UTC+00:00)

Daily predictions for brighter satellites

Satellite Brightness Start Highest point End
(mag) Time Altitude Azimuth Time Altitude Azimuth Time Altitude Azimuth
STARLINK-1303 4.2 00:05:53 42° E 00:05:53 42° E 00:08:35 10° ENE
Cosmos 1570 Rocket 4.0 00:04:53 54° SSE 00:05:59 70° ESE 00:11:15 10° NNE
STARLINK-66 4.2 00:07:08 39° NE 00:07:08 39° NE 00:09:18 10° NE
Cosmos 1709 Rocket 4.0 00:05:05 43° SSE 00:07:07 72° E 00:13:16 10° NNE
Cosmos 1763 Rocket 3.5 00:05:58 52° SW 00:07:08 71° WNW 00:12:12 10° NNE
STARLINK-1312 4.0 00:09:13 47° E 00:09:13 47° E 00:12:05 10° ENE
Cosmos 2227 Rocket 2.6 00:03:57 10° NW 00:09:21 45° WSW 00:10:10 42° SW
STARLINK-1265 4.5 00:14:09 30° ENE 00:14:09 30° ENE 00:15:56 10° ENE
Cosmos 2084 Rocket 3.8 00:08:59 10° NNW 00:13:27 67° NE 00:14:58 39° ESE
STARLINK-1296 4.4 00:16:22 32° ENE 00:16:22 32° ENE 00:18:12 10° ENE
SL-16 R/B 3.9 00:10:23 11° SE 00:15:40 34° ENE 00:21:08 10° N
STARLINK-1260 4.4 00:17:14 33° ENE 00:17:14 33° ENE 00:19:05 10° ENE
Cosmos 1758 Rocket 3.4 00:15:28 67° SSE 00:15:58 77° E 00:20:24 10° NNE
STARLINK-1318 4.3 00:18:07 33° ENE 00:18:07 33° ENE 00:20:00 10° ENE
STARLINK-75 3.8 00:18:02 48° NNE 00:18:02 48° NNE 00:20:33 10° NE
STARLINK-1275 4.3 00:18:59 34° ENE 00:18:59 34° ENE 00:20:55 10° ENE
STARLINK-1309 4.3 00:19:50 35° NE 00:19:50 35° NE 00:21:48 10° NE
STARLINK-1282 4.2 00:20:42 36° NE 00:20:42 36° NE 00:22:41 10° NE
STARLINK-1283 3.4 00:20:03 84° S 00:20:07 85° SE 00:24:16 10° ENE
STARLINK-1313 4.1 00:21:38 40° NE 00:21:38 40° NE 00:23:49 10° NE
STARLINK-80 3.4 00:21:07 74° ENE 00:21:07 74° ENE 00:24:37 10° ENE
STARLINK-1279 4.0 00:22:32 41° NE 00:22:32 41° NE 00:24:44 10° NE
STARLINK-1298 4.1 00:23:16 39° NE 00:23:16 39° NE 00:25:21 10° NE
STARLINK-1293 4.1 00:24:09 40° NE 00:24:09 40° NE 00:26:17 10° NE
Nadezhda 1 Rocket 4.4 00:17:33 10° NNW 00:23:31 49° W 00:25:28 37° SW
CZ-4 R/B 4.0 00:19:12 10° N 00:23:51 60° WNW 00:24:50 48° WSW
SL-16 R/B 3.8 00:22:44 19° SE 00:24:40 22° E 00:28:57 10° NE
Cosmos 2208 Rocket 3.9 00:23:37 52° SSW 00:24:58 84° ESE 00:30:21 10° NNE
STARLINK-1255 4.0 00:25:54 42° NE 00:25:54 42° NE 00:28:06 10° NE
STARLINK-22 3.7 00:26:16 50° NE 00:26:16 50° NE 00:28:47 10° NE
STARLINK-1297 3.4 00:26:32 67° ENE 00:26:32 67° ENE 00:29:44 10° ENE
STARLINK-1311 4.1 00:28:27 38° NNE 00:28:27 38° NNE 00:30:30 10° NE
Cosmos 2285 Rocket 3.9 00:23:03 10° NNW 00:29:25 77° WSW 00:31:55 39° S
USA 81 4.0 00:30:17 49° SSW 00:31:41 75° W 00:36:59 10° N
CZ-2D R/B 3.4 00:28:21 10° NE 00:32:56 31° E 00:35:02 23° SE
USA 215 3.1 00:28:06 15° SE 00:33:37 75° SW 00:40:11 10° NW
Cosmos-2242 2.8 00:29:32 10° N 00:33:49 88° W 00:34:24 66° S
Meteor 2-10 Rocket 3.6 00:29:18 10° NNW 00:34:18 56° W 00:35:16 47° SW
Cosmos 1953 Rocket 3.7 00:33:32 53° SSE 00:34:21 66° E 00:38:43 10° NNE
STARLINK-42 3.8 00:36:26 45° NNW 00:36:26 45° NNW 00:39:24 10° NE
BREEZE-M R/B 4.2 00:30:34 10° W 00:36:38 44° NNW 00:39:52 10° ENE
STARLINK-1029 3.9 00:39:04 40° ENE 00:39:04 40° ENE 00:41:16 10° ENE
STARLINK-34 3.7 00:40:02 47° NE 00:40:02 47° NE 00:42:21 10° NE
STARLINK-41 3.8 00:40:10 43° NNW 00:40:10 43° NNW 00:43:03 10° NE
GP-B 3.7 00:37:18 10° NNE 00:41:38 49° E 00:42:59 36° SE
STARLINK-1272 3.3 00:42:02 66° NW 00:42:11 67° NNW 00:45:43 10° NE
Cosmos 540 Rocket 3.5 00:41:07 45° SW 00:42:37 69° WNW 00:47:44 10° NNE
STARLINK-62 3.6 00:43:45 51° NE 00:43:45 51° NE 00:46:10 10° NE
Cosmos 2360 Rocket 4.4 00:44:18 10° SE 00:47:09 14° E 00:50:00 10° ENE
STARLINK-1307 3.5 00:46:48 56° W 00:47:21 66° NNW 00:51:03 10° NE
Helios 1B rocket 3.5 00:45:51 10° N 00:49:33 33° WNW 00:50:24 30° W
STARLINK-1290 3.6 00:50:11 50° W 00:50:52 62° NNW 00:54:34 10° NE
STARLINK-1276 4.3 00:52:19 38° SE 00:52:19 38° SE 00:56:04 10° ENE
Cosmos 1980 Rocket 2.3 00:51:50 37° SW 00:54:01 67° WNW 00:59:41 10° NNE
Cosmos 2074 Rocket 4.2 00:51:22 31° SSE 00:54:29 66° E 01:00:43 10° NNE
STARLINK-1305 4.2 00:57:04 41° SE 00:57:09 41° SE 01:01:03 10° ENE
STARLINK-1306 4.1 00:57:24 44° SE 00:57:35 44° SE 01:01:36 10° ENE
STARLINK-1317 4.0 00:56:33 36° W 00:57:52 55° NNW 01:01:43 10° NE
Meteor 1-29 4.0 00:55:07 10° N 00:58:09 32° WNW 00:58:11 32° WNW
Cosmos 1328 4.3 00:59:35 42° W 01:00:05 44° WNW 01:03:56 10° N
Cosmos 1455 3.5 00:57:12 10° NNW 01:00:05 26° W 01:00:05 26° W
CZ-4B R/B 4.5 00:56:56 10° NNE 01:01:53 40° E 01:04:34 24° SSE
STARLINK-1274 4.0 01:00:56 36° WNW 01:01:54 49° NNW 01:05:22 10° NE
STARLINK-1262 4.0 01:01:53 44° SSE 01:02:08 45° SE 01:06:06 10° ENE
STARLINK-1291 4.1 01:04:15 32° W 01:05:36 48° NNW 01:09:14 10° NE
Meteor 1-11 4.1 01:03:54 38° SSW 01:06:10 80° WNW 01:11:46 10° N
Cosmos 1703 4.2 01:05:53 32° W 01:06:24 33° WNW 01:10:00 10° N
STARLINK-1300 3.9 01:06:40 47° SSE 01:07:05 49° SE 01:11:06 10° ENE
Lacrosse 4 Rocket 3.4 01:05:46 10° WNW 01:07:20 15° W 01:07:20 15° W
STARLINK-1264 4.2 01:07:26 29° W 01:08:56 46° NNW 01:12:34 10° NE
Cosmos 1825 Rocket 4.5 01:08:39 31° WSW 01:09:35 34° WNW 01:13:36 10° N
ADEOS II 3.7 01:06:34 10° NE 01:10:59 27° E 01:14:40 13° SE
Cosmos 2263 Rocket 2.2 01:05:59 10° NNW 01:11:37 82° ENE 01:15:58 17° SSE
STARLINK-1295 3.8 01:11:26 48° S 01:12:02 54° SE 01:16:05 10° ENE
STARLINK-1267 4.3 01:10:39 26° W 01:12:18 44° NNW 01:15:55 10° NE
NOSS 2-1 (C) 3.1 01:12:05 54° SE 01:12:21 56° ESE 01:15:48 10° NE
Timation 1 Rocket 4.3 01:07:13 10° NNW 01:13:09 65° WSW 01:16:20 28° S
UNK 3.7 01:11:40 31° SSE 01:13:53 80° ENE 01:18:30 10° N
Cosmos 2297 Rocket 4.3 01:13:34 10° W 01:14:42 11° W 01:14:46 11° W
STARLINK-64 3.1 01:14:12 61° WSW 01:14:45 86° NW 01:18:22 10° NE
SL-4 R/B 2.5 01:10:05 10° WNW 01:14:56 74° NNE 01:19:37 10° ESE
AQUA 4.4 01:11:27 10° NNE 01:16:06 50° E 01:18:23 27° SSE
STARLINK-1287 3.7 01:16:13 48° S 01:17:00 59° SE 01:21:05 10° ENE
USA 229 DEB 3.9 01:09:53 10° NW 01:17:13 83° NE 01:24:52 10° SE
NOSS 2-1 (D) 2.9 01:16:50 58° SSE 01:17:14 66° SE 01:20:44 10° NE
USA 229 4.0 01:09:59 10° NW 01:17:19 82° NE 01:24:58 10° SE
NOSS 3-1 (C) 4.1 01:10:30 10° NW 01:18:07 90° N 01:26:51 10° SE
STARLINK-1207 4.5 01:17:09 22° W 01:19:06 41° NNW 01:22:41 10° NE
Cosmos 372 Rocket 4.3 01:14:24 10° NNW 01:19:18 45° WSW 01:20:47 35° SW
Cosmos 2184 Rocket 3.9 01:16:26 31° S 01:19:36 84° W 01:25:49 10° N
NPP 3.8 01:14:42 10° NNE 01:20:06 70° ESE 01:22:54 29° S
CZ-4C R/B 4.1 01:17:20 10° W 01:21:45 25° NNW 01:26:51 10° NNE
BREEZE-M DEB (TANK) 2.4 01:23:14 48° N 01:23:14 48° N 01:25:35 10° ENE
Cosmos 1892 3.9 01:21:52 23° SE 01:23:37 35° E 01:27:06 10° NNE
STARLINK-1299 3.6 01:24:06 42° SW 01:25:27 80° SE 01:29:43 10° ENE
NOSS 3-1 (A) 4.3 01:18:42 10° NW 01:26:15 73° NE 01:34:55 10° SE
STARLINK-1302 3.6 01:25:46 44° SSW 01:26:56 70° SE 01:31:04 10° ENE
BREEZE-M DEB (TANK) 3.4 01:25:49 10° WNW 01:27:59 25° N 01:30:09 10° ENE
Cosmos 1869 3.3 01:27:16 10° N 01:31:08 72° E 01:33:00 29° SSE
STARLINK-1273 3.5 01:30:32 41° SW 01:31:54 76° SE 01:36:02 10° ENE
Cosmos 2150 Rocket 4.3 01:27:01 10° NNW 01:31:57 47° WSW 01:33:54 31° SSW
Cosmos 2322 Rocket 2.4 01:29:42 28° S 01:32:41 65° ESE 01:38:15 10° NNE
STARLINK-1288 3.5 01:35:19 37° SW 01:36:52 83° SE 01:41:01 10° ENE
STARLINK-61 3.5 01:35:51 42° SSW 01:36:58 63° SE 01:40:51 10° ENE
STARLINK-54 4.5 01:40:39 26° SSE 01:41:19 28° SE 01:44:27 10° ENE
STARLINK-1308 3.5 01:40:08 34° SW 01:41:53 90° E 01:46:03 10° NE
Resurs 1-4 Rocket 2.2 01:36:45 10° N 01:42:01 65° WNW 01:44:54 27° SW
Cosmos 1076 Rocket 3.8 01:39:51 25° S 01:42:18 63° E 01:46:39 10° NNE
Cosmos 1400 Rocket 4.1 01:40:40 10° NW 01:44:06 26° W 01:44:46 24° WSW
Cosmos 1125 Rocket 3.6 01:40:32 10° NNW 01:45:39 58° WSW 01:48:54 22° S
Meteor 2-17 Rocket 4.5 01:42:53 25° SSW 01:46:33 70° W 01:52:40 10° N
STARLINK-79 4.5 01:46:45 25° SSE 01:47:39 29° SE 01:50:49 10° ENE
STARLINK-52 3.8 01:45:31 10° NW 01:48:41 52° NNE 01:51:50 10° ESE
STARLINK-78 4.4 01:48:20 26° SSE 01:49:16 30° SE 01:52:29 10° ENE
STARLINK-57 4.3 01:49:58 27° S 01:50:57 32° SE 01:54:14 10° ENE
Cosmos 1408 3.4 01:49:31 19° SSE 01:51:48 45° E 01:55:20 10° NNE
STARLINK-1304 3.6 01:49:41 28° WSW 01:51:50 79° NNW 01:55:59 10° NE
STARLINK-49 4.4 01:51:26 26° S 01:52:29 32° SE 01:55:44 10° ENE
Cosmos 2154 Rocket 4.0 01:49:51 23° SSW 01:53:56 72° W 02:00:11 10° N
STARLINK-27 4.3 01:53:01 27° S 01:54:08 33° SE 01:57:26 10° ENE
STARLINK-74 4.3 01:54:35 27° S 01:55:45 34° SE 01:59:03 10° ENE
GEOS 3 Rocket 3.6 01:51:09 10° SE 01:56:20 86° SW 02:01:39 10° NW
STARLINK-48 4.5 01:53:48 16° W 01:56:39 42° NNW 02:00:22 10° NE
STARLINK-39 4.2 01:56:10 27° S 01:57:23 35° SE 02:00:43 10° ENE
STARLINK-1278 3.9 01:55:21 22° WSW 01:58:01 65° NNW 02:02:16 10° NE
Cosmos 1825 3.5 01:55:27 13° SSE 01:58:25 36° E 02:01:53 10° NNE
STARLINK-31 4.1 01:57:45 27° S 01:59:01 37° SE 02:02:24 10° ENE
SL-16 R/B 2.9 01:55:29 22° SSW 01:59:07 43° W 02:05:01 10° NNW
STARLINK-1280 4.0 01:57:08 21° WSW 01:59:52 63° NNW 02:04:07 10° NE
STARLINK-69 3.9 01:59:20 28° S 02:00:39 41° SE 02:04:04 10° ENE
SL-08 R/B 3.9 01:56:30 10° SSE 02:01:01 57° ENE 02:05:33 10° N
Iridium 2 4.3 01:58:13 10° NNW 02:01:46 39° W 02:03:12 27° SW
STARLINK-21 4.0 02:00:55 27° S 02:02:18 39° SE 02:05:42 10° ENE
Meteor 2-2 Rocket 4.5 01:58:02 10° NNW 02:03:58 60° W 02:08:42 16° S
STARLINK-45 3.8 02:02:35 28° SSW 02:04:03 45° SE 02:07:32 10° ENE
IRS-P3 4.3 02:00:11 10° NNE 02:05:32 72° ESE 02:09:51 16° S
Cosmos 1844 Rocket 3.6 02:00:39 10° NNW 02:06:06 50° ENE 02:11:30 10° SE
NOSS 2-1 (E) 3.8 02:04:58 22° WSW 02:06:44 41° NW 02:10:15 10° NNE
STARLINK-76 3.9 02:05:36 27° SSW 02:07:09 44° SE 02:10:38 10° ENE
STARLINK-70 3.8 02:05:59 27° SSW 02:07:37 47° SE 02:11:09 10° ENE
SL-16 R/B 2.5 02:04:36 21° SW 02:08:19 57° WNW 02:13:56 10° NNE
STARLINK-1286 4.0 02:05:37 19° WSW 02:08:31 61° NNW 02:12:40 10° NE
STARLINK-23 3.8 02:07:10 26° SSW 02:08:48 45° SE 02:12:17 10° ENE
STARLINK-32 3.7 02:08:37 26° SSW 02:10:14 46° SE 02:13:42 10° ENE
IRIDIUM 104 4.4 02:07:39 19° SSW 02:11:23 68° W 02:16:37 10° N
STARLINK-1281 4.0 02:08:48 18° WSW 02:11:46 60° NNW 02:15:52 10° NE
STARLINK-40 3.7 02:10:18 26° SSW 02:12:02 49° SE 02:15:32 10° ENE
CZ-2D R/B 3.0 02:08:17 10° N 02:13:01 36° WNW 02:16:21 17° WSW
STARLINK-44 3.7 02:11:49 25° SSW 02:13:36 50° SE 02:17:08 10° ENE
Cosmos 2221 3.3 02:10:08 10° NNW 02:14:05 34° W 02:16:17 21° SW
STARLINK-1051 4.4 02:11:51 21° SSW 02:14:08 40° SE 02:18:01 10° ENE
Cosmos 773 Rocket 4.3 02:11:02 15° S 02:15:17 64° ESE 02:20:32 10° NNE
STARLINK-37 3.5 02:13:33 25° SSW 02:15:25 56° SE 02:18:59 10° ENE
STARLINK-60 3.5 02:13:37 10° WNW 02:16:34 34° SW 02:19:30 10° SSE
STARLINK-1310 4.1 02:13:35 16° WSW 02:16:46 55° NNW 02:20:51 10° NE
STARLINK-36 3.6 02:14:56 24° SSW 02:16:51 54° SE 02:20:24 10° ENE
USA 215 4.4 02:15:22 18° SW 02:17:18 20° WSW 02:21:56 10° WNW
FALCON 9 DEB 3.7 02:14:36 10° NW 02:18:01 61° NNE 02:21:27 10° ESE
Nadezhda 3 Rocket 4.4 02:13:29 10° NNW 02:19:30 48° W 02:24:39 14° SSW
Cosmos 1315 Rocket 3.9 02:16:28 10° NW 02:19:47 27° W 02:21:25 20° SW
STARLINK-63 3.4 02:18:10 23° SW 02:20:12 61° SE 02:23:47 10° ENE
BREEZE-M DEB (TANK)4.402:22:48SSE02:22:48SSE02:16:35WNW
STARLINK-35 3.4 02:19:32 23° SW 02:21:34 59° SE 02:25:05 10° ENE
STARLINK-1319 4.2 02:18:21 14° WSW 02:21:44 52° NNW 02:25:48 10° NE
CBERS-1 4.3 02:17:44 10° N 02:22:46 57° WNW 02:26:40 17° SW
STARLINK-51 3.4 02:21:14 22° SW 02:23:22 62° SE 02:26:56 10° ENE
STARLINK-1028 4.1 02:21:25 19° SSW 02:24:03 48° SE 02:28:02 10° ENE
Cosmos 2366 rocket 4.4 02:18:17 10° S 02:24:26 67° E 02:30:42 10° NNE
STARLINK-30 3.4 02:22:49 22° SW 02:25:02 64° SE 02:28:38 10° ENE
STARLINK-72 3.3 02:24:13 21° SW 02:26:25 66° SE 02:29:58 10° ENE
STARLINK-1277 4.3 02:23:08 13° W 02:26:44 49° NNW 02:30:47 10° NE
Shenzhou-11 Module 1.4 02:26:47 23° WSW 02:28:05 59° S 02:30:30 10° ESE
STARLINK-1021 4.0 02:26:14 18° SSW 02:29:02 52° SE 02:33:04 10° ENE
Cosmos 2058 3.8 02:27:00 18° SW 02:29:36 35° WNW 02:33:30 10° N
STARLINK-59 3.2 02:27:25 20° SW 02:29:45 74° SE 02:33:20 10° ENE
Cosmos 2360 Rocket 2.2 02:25:44 16° SSW 02:30:20 84° WNW 02:36:01 10° NNE
STARLINK-1010 3.9 02:28:17 18° SW 02:31:16 58° SE 02:35:27 10° ENE
STARLINK-56 3.3 02:29:04 19° SW 02:31:31 73° SE 02:35:09 10° ENE
STARLINK-1276 4.4 02:27:56 11° W 02:31:46 46° NNW 02:35:46 10° NE
STARLINK-73 3.2 02:30:38 19° SW 02:33:09 76° SE 02:36:47 10° ENE
STARLINK-1019 3.9 02:30:59 17° SW 02:33:58 57° SE 02:38:02 10° ENE
STARLINK-38 3.2 02:32:12 18° SW 02:34:46 79° SE 02:38:25 10° ENE
STARLINK-65 3.2 02:33:46 18° SW 02:36:25 81° SE 02:40:03 10° ENE
STARLINK-68 3.2 02:34:23 17° SW 02:37:06 87° SE 02:40:46 10° ENE
STARLINK-53 3.2 02:35:24 17° SW 02:38:07 87° SE 02:41:46 10° ENE
STARLINK-1012 3.8 02:35:47 16° SW 02:38:56 62° SE 02:43:02 10° ENE
Cosmos 1980 Rocket 4.4 02:36:23 10° WNW 02:39:11 14° NW 02:41:59 10° N
STARLINK-50 3.4 02:37:26 16° SW 02:40:24 82° SE 02:44:12 10° ENE
SL-24 DEB 4.2 02:38:10 10° N 02:42:47 78° W 02:47:22 10° S
Cosmos 2333 Rocket 3.0 02:38:29 10° S 02:43:53 49° ESE 02:49:19 10° NE
STARLINK-71 3.5 02:41:45 14° SW 02:45:08 89° NW 02:49:11 10° NE
Meteor 1-28 Rocket 3.1 02:41:48 10° S 02:45:31 69° WSW 02:49:15 10° NNW
Landsat 5 4.2 02:42:22 10° SSE 02:46:49 64° ENE 02:51:14 10° N
Cosmos 2219 Rocket 2.9 02:42:39 10° S 02:48:00 49° ESE 02:53:22 10° NE
STARLINK-1026 3.7 02:45:20 14° SW 02:48:52 74° SE 02:53:01 10° ENE
Cosmos 2322 3.9 02:43:38 10° SSW 02:49:20 77° ESE 02:55:04 10° NNE
STARLINK-29 3.4 02:46:26 10° WNW 02:49:25 36° SW 02:52:20 10° SSE
STARLINK-1378 4.5 02:45:40 10° NW 02:49:37 52° NNE 02:53:33 10° ESE
Cosmos 1727 Rocket 4.2 02:43:58 10° N 02:50:10 75° E 02:56:20 10° SSE
ADEOS II 2.7 02:45:52 10° N 02:50:48 42° WNW 02:55:36 11° SW
Cosmos 864 Rocket 4.5 02:45:59 10° S 02:52:06 80° W 02:58:18 10° N
STARLINK-1013 3.6 02:50:08 13° SW 02:53:52 80° SE 02:58:01 10° ENE
STARLINK-1379 4.3 02:50:09 10° NW 02:54:07 56° NNE 02:58:06 10° ESE
SL-4 R/B 3.2 02:50:20 10° WNW 02:54:21 27° SW 02:58:11 10° S
IDEFIX/ARIANE 42P 2.8 02:49:12 10° NNE 02:54:29 73° ESE 02:59:43 10° S
Cosmos 2263 Rocket 3.8 02:51:52 10° WNW 02:54:45 14° W 02:57:35 10° SW
ERS-2 2.2 02:51:31 10° S 02:55:08 61° WSW 02:58:47 10° NNW
Cosmos 1606 2.6 02:51:43 10° N 02:55:30 88° W 02:59:17 10° S
STARLINK-25 3.3 02:53:37 11° WSW 02:56:52 69° NNW 03:00:20 10° NE
STARLINK-1329 4.2 02:53:58 10° NW 02:57:58 59° NNE 03:01:58 10° ESE
ATLAS 5 CENTAUR R/B 3.6 02:55:16 10° SSE 02:58:22 21° ESE 03:01:41 10° ENE
Cosmos 2333 4.3 02:53:09 10° SSW 02:58:45 86° ESE 03:04:25 10° NNE
STARLINK-1009 3.6 02:54:54 11° SW 02:58:49 86° SSE 03:03:00 10° ENE
BREEZE-M R/B 2.7 02:56:31 10° WNW 02:59:44 55° NNE 03:02:07 10° E
ARIANE 5 R/B 2.8 02:55:10 10° N 03:00:04 54° WNW 03:04:54 10° SSW
STARLINK-1362 4.1 02:58:30 10° NW 03:02:32 63° NNE 03:06:33 10° ESE
STARLINK-1015 3.6 02:59:41 10° SW 03:03:48 87° NNW 03:07:58 10° NE
STARLINK-1320 2.9 03:00:41 10° NW 03:03:49 84° NNE 03:06:56 10° ESE
STARLINK-1322 2.9 03:01:03 10° NW 03:04:11 84° NE 03:07:18 10° ESE
STARLINK-1324 2.9 03:01:22 10° NW 03:04:30 85° NE 03:07:36 10° ESE
CZ-2C R/B 2.8 03:00:56 10° NNE 03:04:43 85° ESE 03:08:33 10° SSW
STARLINK-1294 2.9 03:01:40 10° NW 03:04:48 85° NNE 03:07:57 10° ESE
CZ-2D R/B 3.7 03:00:55 10° N 03:05:08 62° WNW 03:09:26 10° SSW
STARLINK-1261 2.9 03:02:03 10° NW 03:05:11 86° NE 03:08:18 10° ESE
STARLINK-1325 2.9 03:02:24 10° NW 03:05:32 87° NE 03:08:39 10° SE
STARLINK-1333 2.9 03:02:46 10° NW 03:05:54 87° NE 03:09:01 10° SE
Cosmos 1408 Rocket 3.6 03:01:47 10° S 03:06:06 85° E 03:10:25 10° N
STARLINK-1334 2.9 03:03:04 10° NW 03:06:11 88° NE 03:09:18 10° SE
STARLINK-1326 2.9 03:03:22 10° NW 03:06:30 88° NE 03:09:37 10° SE
STARLINK-1323 2.9 03:03:46 10° NW 03:06:53 89° NNE 03:10:00 10° SE
STARLINK-1373 4.0 03:02:58 10° NW 03:07:00 67° NNE 03:11:00 10° ESE
STARLINK-1349 2.8 03:04:04 10° NW 03:07:12 89° NE 03:10:18 10° SE
STARLINK-1336 2.8 03:04:23 10° NW 03:07:30 90° NW 03:10:38 10° SE
STARLINK-1331 2.8 03:04:46 10° NW 03:07:54 89° S 03:11:00 10° SE
STARLINK-1344 2.8 03:05:04 10° NW 03:08:12 89° SSW 03:11:18 10° SE
STARLINK-24 3.9 03:04:18 10° WSW 03:08:16 62° NNW 03:12:16 10° NE
STARLINK-1343 2.8 03:05:27 10° WNW 03:08:35 88° SSW 03:11:42 10° SE
STARLINK-1016 3.7 03:04:37 10° WSW 03:08:46 81° NNW 03:12:56 10° NE
STARLINK-1346 2.8 03:05:43 10° WNW 03:08:53 88° SW 03:12:02 10° SE
STARLINK-1328 2.8 03:06:10 10° WNW 03:09:18 87° SW 03:12:24 10° SE
STARLINK-1354 2.8 03:06:27 10° WNW 03:09:35 87° SSW 03:12:42 10° SE
Cosmos 1844 3.8 03:04:07 10° NNW 03:09:52 66° WSW 03:15:35 10° SSE
STARLINK-1347 2.8 03:06:44 10° WNW 03:09:53 86° SSW 03:12:59 10° SE
STARLINK-1357 2.8 03:07:10 10° WNW 03:10:18 85° SSW 03:13:25 10° SE
STARLINK-1335 2.8 03:07:27 10° WNW 03:10:35 85° SW 03:13:42 10° SE
STARLINK-1327 2.8 03:07:48 10° WNW 03:10:56 84° SW 03:14:02 10° SE
STARLINK-1340 2.8 03:08:06 10° WNW 03:11:14 84° SW 03:14:20 10° SE
STARLINK-1356 2.8 03:08:29 10° WNW 03:11:37 83° SW 03:14:44 10° SE
STARLINK-1390 3.9 03:07:38 10° NW 03:11:42 72° NNE 03:15:44 10° ESE
STARLINK-1345 2.8 03:08:48 10° WNW 03:11:55 82° SW 03:15:02 10° SE
STARLINK-1355 2.8 03:09:09 10° WNW 03:12:17 82° SSW 03:15:24 10° SE
STARLINK-1321 2.8 03:09:30 10° WNW 03:12:38 81° SW 03:15:45 10° SE
STARLINK-1358 2.8 03:09:53 10° WNW 03:13:01 81° SW 03:16:07 10° SE
STARLINK-1332 2.8 03:10:11 10° WNW 03:13:18 80° SW 03:16:24 10° SE
STARLINK-1348 2.8 03:10:31 10° WNW 03:13:39 80° SW 03:16:45 10° SE
STARLINK-1008 3.7 03:09:38 10° WSW 03:13:46 76° NNW 03:17:56 10° NE
STARLINK-1330 2.8 03:10:50 10° WNW 03:13:58 79° SW 03:17:04 10° SE
STARLINK-1363 2.8 03:11:11 10° WNW 03:14:18 78° SW 03:17:24 10° SE
STARLINK-1337 2.8 03:11:33 10° WNW 03:14:40 78° SW 03:17:47 10° SE
STARLINK-1342 2.8 03:11:53 10° WNW 03:15:00 77° SW 03:18:06 10° SE
Cosmos 1680 Rocket 4.5 03:10:12 10° S 03:15:14 48° ESE 03:20:19 10° NNE
Cosmos 2322 Rocket 3.8 03:12:51 10° W 03:17:13 23° NW 03:21:37 10° N
Meteor 2-3 Rocket 3.8 03:12:23 10° S 03:17:59 90° ESE 03:23:37 10° N
Cosmos 2344 4.1 03:12:41 10° SSW 03:20:03 57° ESE 03:27:41 10° NE
